Weather in Otradovka

Ukraine / Kherson District     46°22′30″N   34°26′48″E
temp.,
°C
wind,
m/s
gust,
m/s
humid.,
%
clouds,
%
prec.,
mm/h
press.,
hPa
HPBL,
m
27 january, wed
wed2723:00+8s51191100 0.7 1008370
02:00+8se6993100 3.9 1005248
05:00+9se61187100 0.6 1003245
08:00+9se51279100 0.6 1002311
11:00+12sse61265100 0.0 1001470
14:00+11se5872100 0.1 999292
17:00+10ese4976100 0.0 998218
20:00+10se71470100 0.0 996330
28 january, thu
thu2823:00+10se71370100 0.1 996350
02:00+9sse41073100 0.1 995268
05:00+7ssw61381100 0.0 995653
08:00+6ssw91374100 0.0 998856
11:00+6sw9126197 0.0 10001156
14:00+6ssw9125895 0.0 10011513
17:00+3ssw81264100 0.1 10031076
20:00+2ssw9147672 0.1 1003984
29 january, fri
fri2923:00+2ssw10158798 0.6 10031125
02:00+3ssw9157499 1.3 10031288
05:00+2sw91584100 0.3 10031174
08:00+1wsw7138299 0.4 10051129
11:00+3wsw8136399 0.0 10061292
14:00+5wsw81259100 0.0 10061383
17:00+3sw41067100 0.0 1006457
20:00+3ssw5137697 0.0 1006509
30 january, sat
sat3023:00+4ssw71491100 0.1 1005674
02:00+4ssw61386100 0.3 1005600
05:00+5s51186100 0.0 1003387
08:00+6s71386100 0.3 1002668
11:00+7s91367100 0.0 10011049
14:00+9s71257100 0.0 9991243
17:00+8sse61159100 0.0 998334
20:00+7s71361100 0.1 998873
31 january, sun
sun3123:00+6ssw41085100 2.2 997641
02:00+6w4795100 3.4 999346
05:00+3nw6883100 0.0 1001525
08:00+1wnw4676100 0.0 1006359
11:00+3wnw346193 0.0 1009446
14:00+5nw235596 0.0 1009573
17:00+3ene116393 0.0 101022
20:00+2ese347282 0.0 101184